Wind_Speed
11 10 15 13 10 7 10 12 14 8 12 12 15 11 16 14 14 17 26 25 29 30 32 32 32 31 29 28 26 23 20 19 17 14 14 13 14 15 14 13 13 13 14 12 13 13 13 13 11
5 8 9 6 3 4 10 14 17 12 13 7 13 10 18 16 23 34 31 29 29 29 30 33 31 29 28 25 23 21 19 17 15 14 13 13 13 14 12 12 12 12 12 12 12 13 13 12 12
2 6 4 10 14 15 18 20 22 17 8 4 14 16 21 31 28 31 30 31 28 31 30 30 29 27 25 22 20 20 18 17 15 14 13 12 12 12 11 11 11 11 11 12 12 13 13 12 11
7 18 7 6 19 18 20 15 20 20 14 7 13 27 27 23 27 29 30 30 30 31 29 27 26 25 22 21 19 19 18 17 15 14 12 12 11 10 10 10 11 11 12 12 12 12 13 12 12
2 2 4 2 18 22 20 16 27 24 16 13 17 25 27 25 25 26 27 28 27 29 27 24 23 23 21 20 19 18 17 17 15 13 12 10 10 9 8 11 12 12 12 12 12 11 12 12 12
12 6 8 10 21 19 21 15 15 11 10 13 12 26 28 21 21 23 23 25 25 24 25 23 23 22 21 20 19 18 17 16 14 12 11 9 9 8 10 11 12 12 12 12 13 12 11 11 11
12 5 11 9 17 21 20 20 25 13 11 9 14 25 27 23 18 20 23 23 22 22 23 23 22 22 20 19 18 17 16 15 13 11 10 9 9 11 11 11 10 11 10 11 10 10 10 10 9
16 11 11 8 19 20 20 10 14 13 11 12 7 13 23 19 19 19 20 23 21 21 21 21 21 21 20 19 17 16 14 12 11 10 9 8 8 10 11 10 9 9 10 8 8 7 8 8 11
25 23 9 14 18 17 13 22 21 11 13 9 4 4 11 20 20 22 21 26 22 21 20 21 21 20 19 17 15 14 12 10 9 7 5 4 6 7 8 8 6 10 11 9 9 8 7 7 8
13 12 8 7 19 19 13 14 19 20 14 10 14 13 10 21 17 19 23 23 22 21 21 20 19 18 17 16 14 12 10 9 7 4 2 2 5 4 5 4 5 9 3 7 7 6 4 6 5
7 16 6 9 18 20 17 15 16 15 12 10 14 18 10 18 8 11 18 13 18 20 21 21 18 18 17 16 14 11 9 9 7 5 2 2 1 3 4 6 3 2 5 5 4 5 8 9 9
9 5 8 9 15 13 20 13 17 7 17 15 13 7 14 15 13 15 10 16 19 18 19 21 19 17 16 14 13 10 8 6 7 8 5 1 4 6 5 3 2 5 2 4 5 4 8 7 11
17 7 8 12 11 11 12 14 13 16 23 17 15 14 18 16 11 9 9 13 20 19 18 18 17 13 13 14 11 10 14 10 8 6 3 3 2 3 8 4 5 6 8 5 7 6 9 8 8
20 18 13 7 9 31 13 17 13 23 19 16 15 13 27 24 18 12 13 16 17 16 16 18 16 10 7 5 5 3 3 3 2 3 2 5 3 2 3 1 5 5 6 6 6 8 10 11 9
19 21 20 9 11 25 15 15 18 19 17 18 15 14 21 27 28 23 16 14 16 14 12 11 12 9 7 6 6 5 4 4 10 7 4 4 3 2 3 5 7 8 7 5 9 8 13 12 11
21 22 27 21 16 21 26 21 18 18 19 19 15 14 18 20 23 26 25 16 15 15 10 9 9 11 11 9 8 8 8 7 8 10 8 4 5 3 6 7 9 10 9 7 7 13 14 10 15
23 27 24 16 22 17 20 26 20 21 22 20 17 16 20 21 23 24 22 18 15 15 14 11 11 12 12 11 9 10 11 12 14 7 5 3 5 6 9 9 11 12 11 10 11 11 13 12 11
26 25 25 20 27 25 29 23 30 22 27 24 20 17 22 23 26 22 22 20 18 17 17 14 13 11 13 13 12 12 13 13 13 8 5 10 9 11 10 12 10 12 10 10 11 13 16 14 12
26 28 28 19 25 18 24 27 26 23 29 31 28 24 24 26 24 28 25 23 22 20 17 16 15 12 10 11 10 10 11 11 10 11 11 11 10 11 10 13 11 9 10 10 7 9 11 12 12
31 33 34 16 29 27 27 23 29 16 37 38 36 27 27 25 27 28 30 26 24 20 18 17 15 16 12 10 10 11 13 12 13 13 12 11 11 11 8 8 7 6 6 6 8 9 10 10 9
36 36 35 20 15 15 21 31 37 23 31 37 39 31 27 22 27 31 30 31 28 26 22 19 17 17 15 13 12 13 14 15 14 16 10 5 6 4 4 4 1 3 5 7 6 9 12 13 10
40 36 32 22 25 27 25 16 42 29 36 38 39 37 30 27 26 26 31 31 30 30 27 24 21 20 18 17 14 13 14 12 9 9 8 8 6 3 3 2 3 5 7 8 9 12 14 14 13
45 35 35 33 25 34 27 9 22 36 42 40 40 37 32 27 26 24 25 25 25 22 23 24 24 23 21 20 17 14 13 13 11 12 8 6 7 5 4 2 3 4 5 6 8 14 22 19 15
35 35 38 36 33 16 29 19 27 28 33 41 37 34 34 31 29 28 23 19 24 21 18 15 21 25 25 23 19 16 14 15 16 14 11 10 8 7 5 4 1 1 0 4 10 10 21 16 16
32 38 27 17 18 6 31 35 32 27 34 38 41 36 31 30 31 32 30 25 19 18 13 12 13 18 24 24 20 17 17 18 17 15 12 11 10 8 7 8 7 5 4 4 6 10 19 21 15
43 40 30 10 11 12 24 21 40 37 26 29 40 34 31 33 32 34 34 30 24 16 14 11 9 12 20 22 20 19 20 21 19 17 13 13 12 12 9 11 11 10 10 9 8 15 21 26 24
33 48 43 31 33 18 27 33 39 31 35 33 43 42 29 39 40 36 36 37 27 25 15 12 9 10 16 20 20 22 22 21 19 18 17 16 14 14 15 14 13 13 14 14 13 17 21 22 23
44 29 38 42 15 18 25 31 32 32 42 42 44 29 23 43 45 47 41 34 29 25 19 15 14 13 14 19 21 23 22 21 20 19 19 17 17 15 13 12 14 16 17 18 17 19 22 24 23
38 45 43 29 40 9 8 29 34 21 35 47 42 38 29 24 42 43 34 32 37 27 22 20 18 18 19 21 22 24 24 23 22 20 19 18 19 18 14 13 15 18 21 22 23 25 26 25 26
45 41 46 34 13 28 32 36 21 26 26 40 38 38 23 24 24 45 42 37 35 21 19 21 20 22 21 21 23 26 26 26 25 20 18 19 18 16 14 18 18 21 24 26 27 28 30 27 27
Wind_Direction
101 103 64 90 99 142 145 119 113 100 88 65 112 104 126 138 148 140 130 130 130 132 131 128 129 127 127 127 130 131 133 137 132 122 117 108 97 95 91 83 76 69 65 62 62 64 66 67 74
129 72 55 73 73 194 112 130 109 124 94 85 70 102 135 116 130 129 133 132 131 131 129 130 130 129 128 131 131 133 138 137 133 125 117 107 104 96 90 81 74 68 63 56 57 58 61 62 66
136 130 54 116 108 119 123 121 124 120 98 102 83 129 125 123 126 124 131 133 132 134 132 131 132 132 132 130 134 138 138 137 131 126 116 111 100 94 87 81 74 65 61 60 55 55 57 60 66
193 174 59 113 113 126 128 118 119 116 119 93 127 121 123 126 126 127 129 131 133 134 135 136 135 135 133 136 138 137 138 136 131 122 117 109 103 92 82 75 69 63 62 59 62 59 63 63 66
136 160 201 125 126 125 119 120 138 127 131 104 148 125 123 132 129 129 129 131 137 138 139 138 138 138 138 138 138 137 135 130 125 124 121 110 96 83 77 71 68 66 61 63 63 72 71 76 75
232 199 11 346 134 132 129 154 145 152 144 121 141 131 130 138 139 133 132 133 138 139 141 142 141 142 139 139 137 136 134 130 129 129 120 109 94 86 81 71 67 68 64 62 66 73 70 70 68
265 278 310 326 138 144 131 108 131 156 124 103 121 133 135 145 147 139 138 139 138 138 142 144 145 142 141 141 141 140 136 134 135 131 122 109 101 89 80 75 68 66 68 70 65 64 64 67 67
307 249 352 349 137 125 142 132 168 159 142 107 78 143 144 148 153 145 149 140 141 142 145 145 146 144 145 145 145 143 139 138 136 128 117 111 108 90 84 70 65 65 63 72 74 77 63 49 42
5 100 14 33 133 144 138 125 142 158 144 108 153 110 153 148 164 151 148 144 149 149 151 154 152 150 151 150 150 148 144 143 140 137 127 116 96 81 74 63 54 46 39 32 38 49 58 19 11
330 339 1 38 135 146 129 132 126 143 153 147 150 138 155 145 150 163 158 145 154 159 161 162 160 160 157 158 159 156 154 156 151 139 128 52 56 77 95 65 30 62 34 51 30 360 52 59 21
263 260 274 172 151 142 150 121 148 163 186 166 168 169 170 162 168 186 157 174 163 163 170 166 169 172 170 169 166 166 172 171 166 157 198 76 244 318 38 53 347 60 49 24 29 23 10 8 6
226 267 80 143 175 169 162 152 171 179 178 178 195 210 169 172 164 161 171 188 176 174 175 167 174 172 172 172 163 171 187 189 206 196 188 262 335 346 349 28 11 51 58 9 2 4 354 358 358
259 235 313 261 225 211 152 151 160 159 178 186 204 196 177 187 179 168 190 175 177 169 182 167 174 175 184 176 174 186 210 196 185 205 212 245 290 315 325 19 342 352 350 25 7 316 323 345 334
262 250 312 239 172 171 176 156 150 163 173 189 227 227 175 186 193 185 200 173 172 174 174 155 165 177 182 181 195 234 210 240 237 295 184 235 215 244 284 346 331 305 314 337 333 329 334 323 314
261 234 252 238 166 181 174 162 162 166 187 197 230 207 180 182 180 193 201 196 177 188 196 164 168 190 195 207 207 227 240 215 224 271 216 229 265 281 299 301 306 307 329 314 324 318 314 325 345
256 255 265 234 207 179 164 138 168 190 196 201 222 215 189 185 184 190 206 199 187 196 201 186 185 200 216 223 210 232 241 239 251 252 260 232 253 270 288 287 286 303 295 296 286 293 316 340 341
240 259 252 228 184 198 197 176 177 171 200 206 219 235 201 195 200 205 208 208 207 206 218 209 204 203 222 228 227 230 240 243 248 246 251 253 285 292 288 292 293 299 295 322 313 306 327 326 348
234 246 248 225 201 199 198 207 187 190 190 216 221 232 214 212 205 214 214 216 220 216 222 219 222 210 211 231 230 233 238 244 254 248 248 278 276 280 281 297 305 302 308 313 326 331 324 338 340
234 241 247 254 184 186 205 213 202 205 193 205 221 215 217 220 216 217 228 229 227 227 222 223 229 232 228 230 246 244 248 248 245 243 248 260 277 280 291 296 295 306 312 320 335 343 337 345 336
230 245 253 265 193 206 210 225 220 235 203 204 208 220 215 221 221 221 225 235 233 229 226 224 227 241 242 239 239 247 245 243 243 251 268 274 269 282 280 284 306 311 342 13 21 356 358 359 337
232 240 248 244 213 242 268 231 222 220 213 198 205 227 228 232 222 223 229 233 238 238 233 231 235 243 244 242 242 244 247 244 233 239 258 223 265 280 294 295 332 29 60 50 32 11 6 11 0
231 233 244 218 218 210 223 218 221 202 196 197 202 219 228 233 229 230 231 237 243 244 244 235 233 236 241 244 245 251 255 248 228 234 229 228 196 162 94 70 80 60 51 49 19 15 4 2 6
234 236 243 253 250 199 228 306 224 208 196 198 203 219 226 236 243 242 246 246 249 253 250 239 229 229 232 241 246 248 244 236 227 236 234 194 161 141 115 100 107 77 62 45 20 11 1 342 344
232 237 244 252 253 203 213 210 261 198 204 210 202 211 222 224 237 244 259 251 244 252 255 247 229 225 229 234 241 239 226 220 222 222 216 186 170 167 161 171 196 219 22 9 18 22 18 353 344
222 231 241 252 247 213 216 214 223 235 231 213 223 213 213 218 231 237 245 248 237 236 243 252 247 225 226 228 233 228 213 214 218 219 210 193 185 192 191 214 226 262 271 315 359 352 10 10 334
221 226 229 224 232 250 236 201 214 224 227 222 214 227 213 218 229 230 237 244 246 230 229 227 235 236 223 229 227 220 211 213 214 218 210 206 195 205 216 228 235 252 277 282 288 326 336 351 357
225 220 233 247 252 261 240 250 254 243 225 218 203 199 219 214 220 229 233 239 246 242 228 226 210 211 226 229 222 218 209 217 216 214 215 205 207 210 223 238 244 256 272 285 300 314 338 343 353
231 226 219 233 235 248 253 253 250 231 213 209 200 211 207 214 222 225 227 235 242 233 234 227 225 213 214 229 224 215 214 216 213 210 208 212 217 227 231 240 254 268 279 294 302 310 325 338 343
222 226 231 228 233 231 242 252 251 265 227 207 215 219 222 227 216 215 212 230 241 235 236 236 232 223 213 218 222 215 215 215 208 208 209 217 234 241 253 268 265 272 281 292 299 302 311 321 333
223 224 228 233 228 240 244 254 247 253 265 226 230 215 237 224 210 202 222 222 228 224 238 242 237 233 224 219 218 215 215 216 213 211 217 227 238 261 273 274 278 282 290 295 298 299 304 311 323
Height
3165 3163 3165 3160 3163 3159 3160 3161 3162 3161 3162 3163 3164 3163 3163 3159 3162 3166 3167 3169 3172 3175 3177 3180 3184 3187 3190 3194 3196 3199 3202 3204 3206 3207 3208 3209 3209 3210 3210 3211 3211 3211 3211 3211 3211 3211 3210 3210 3210
3167 3166 3166 3163 3164 3161 3161 3161 3161 3161 3161 3163 3163 3163 3163 3162 3163 3163 3168 3172 3175 3179 3181 3184 3187 3190 3193 3196 3199 3201 3204 3205 3207 3209 3210 3211 3211 3212 3213 3213 3213 3213 3213 3213 3212 3213 3212 3212 3212
3168 3169 3166 3162 3162 3162 3163 3162 3163 3163 3161 3161 3163 3167 3166 3165 3169 3169 3172 3174 3178 3181 3184 3187 3190 3193 3196 3198 3201 3202 3205 3207 3209 3211 3211 3213 3213 3214 3214 3215 3215 3215 3215 3215 3214 3214 3214 3215 3215
3167 3163 3166 3161 3158 3162 3161 3164 3163 3163 3164 3164 3164 3167 3171 3173 3173 3174 3175 3178 3181 3184 3187 3190 3193 3196 3198 3200 3202 3204 3207 3208 3210 3212 3214 3215 3215 3215 3216 3217 3217 3216 3216 3216 3216 3215 3216 3216 3216
3164 3149 3163 3160 3157 3161 3162 3164 3164 3161 3163 3165 3168 3168 3173 3177 3178 3178 3179 3182 3185 3186 3189 3193 3196 3198 3199 3202 3204 3206 3208 3210 3212 3214 3215 3216 3217 3217 3218 3218 3218 3218 3218 3217 3217 3217 3217 3217 3217
3160 3159 3154 3156 3160 3163 3165 3164 3163 3163 3166 3166 3168 3171 3175 3179 3181 3181 3183 3185 3188 3189 3191 3194 3197 3199 3201 3204 3206 3208 3210 3212 3214 3216 3217 3218 3218 3218 3219 3218 3218 3219 3219 3219 3218 3218 3218 3218 3219
3162 3152 3155 3157 3163 3165 3164 3164 3163 3164 3165 3166 3170 3172 3176 3180 3183 3185 3186 3188 3190 3192 3194 3196 3199 3201 3203 3206 3208 3210 3212 3214 3216 3217 3217 3218 3219 3219 3219 3219 3219 3219 3219 3219 3220 3220 3220 3220 3219
3160 3167 3158 3159 3162 3166 3166 3166 3162 3163 3167 3169 3172 3174 3176 3180 3183 3185 3187 3189 3192 3194 3197 3198 3200 3203 3206 3208 3210 3212 3214 3216 3217 3217 3218 3219 3220 3220 3220 3220 3220 3220 3221 3220 3220 3220 3221 3221 3223
3168 3164 3157 3161 3165 3167 3166 3164 3169 3168 3164 3171 3174 3176 3179 3181 3185 3186 3187 3189 3192 3195 3198 3200 3202 3205 3208 3210 3212 3214 3215 3217 3218 3218 3219 3220 3220 3221 3221 3221 3221 3222 3223 3223 3222 3222 3222 3223 3222
3169 3165 3166 3168 3170 3170 3166 3165 3167 3169 3169 3172 3174 3178 3179 3182 3185 3186 3186 3189 3193 3196 3199 3202 3204 3206 3209 3211 3213 3214 3216 3217 3218 3219 3220 3221 3221 3221 3220 3221 3223 3221 3221 3223 3223 3222 3223 3224 3223
3165 3167 3170 3171 3169 3167 3168 3168 3170 3170 3172 3171 3173 3175 3179 3182 3185 3187 3190 3191 3194 3197 3200 3202 3205 3207 3209 3211 3212 3214 3216 3218 3219 3219 3220 3220 3220 3220 3223 3220 3223 3223 3222 3224 3224 3222 3221 3221 3223
3166 3166 3166 3166 3166 3164 3165 3167 3167 3169 3171 3172 3175 3176 3180 3182 3186 3188 3190 3191 3194 3197 3200 3202 3204 3206 3209 3211 3212 3214 3216 3218 3219 3219 3219 3219 3219 3220 3219 3220 3222 3220 3221 3222 3222 3223 3222 3222 3220
3161 3161 3164 3163 3163 3167 3168 3167 3168 3169 3173 3175 3177 3180 3180 3183 3185 3188 3190 3191 3195 3197 3199 3202 3203 3206 3208 3210 3212 3213 3215 3217 3218 3218 3218 3219 3220 3221 3222 3220 3221 3221 3221 3221 3221 3221 3221 3219 3220
3159 3162 3161 3159 3161 3166 3167 3170 3170 3172 3171 3175 3178 3180 3182 3184 3185 3187 3187 3191 3194 3196 3198 3200 3203 3205 3207 3210 3211 3212 3213 3214 3214 3216 3217 3218 3220 3221 3221 3220 3221 3220 3220 3221 3220 3220 3218 3218 3219
3159 3159 3161 3160 3160 3163 3165 3172 3171 3172 3173 3173 3177 3179 3181 3184 3187 3188 3187 3190 3194 3195 3198 3200 3203 3204 3207 3209 3210 3212 3213 3214 3215 3214 3216 3218 3218 3220 3219 3220 3219 3218 3219 3219 3219 3219 3217 3217 3217
3152 3155 3155 3160 3160 3159 3162 3168 3170 3172 3171 3173 3175 3178 3179 3182 3185 3188 3188 3190 3194 3195 3197 3200 3202 3204 3206 3208 3210 3211 3212 3213 3214 3214 3215 3217 3217 3218 3219 3219 3218 3217 3218 3217 3218 3217 3217 3216 3215
3146 3149 3150 3154 3157 3161 3161 3162 3165 3170 3170 3171 3173 3176 3178 3181 3184 3186 3187 3189 3192 3194 3195 3198 3201 3204 3206 3207 3208 3210 3211 3212 3212 3213 3213 3214 3215 3216 3217 3217 3217 3216 3214 3215 3215 3214 3214 3214 3213
3142 3144 3145 3150 3152 3154 3156 3159 3163 3165 3168 3169 3170 3173 3176 3179 3181 3183 3185 3187 3190 3193 3194 3197 3199 3203 3205 3206 3207 3208 3209 3210 3212 3213 3213 3214 3215 3215 3216 3215 3215 3214 3213 3213 3213 3213 3212 3211 3211
3141 3142 3143 3146 3148 3152 3155 3156 3157 3161 3164 3165 3165 3167 3171 3175 3179 3182 3183 3184 3187 3189 3193 3195 3197 3200 3202 3204 3205 3206 3207 3208 3209 3210 3212 3213 3211 3212 3213 3213 3212 3212 3211 3211 3212 3211 3211 3210 3208
3136 3137 3138 3145 3143 3147 3148 3153 3154 3154 3154 3157 3160 3163 3166 3171 3175 3178 3180 3181 3183 3186 3189 3192 3194 3196 3199 3201 3202 3203 3204 3206 3206 3206 3207 3208 3209 3209 3210 3210 3210 3211 3211 3212 3211 3211 3211 3209 3207
3130 3131 3133 3141 3147 3147 3151 3146 3148 3149 3151 3155 3156 3160 3162 3164 3168 3172 3175 3177 3179 3181 3185 3188 3191 3192 3195 3197 3199 3200 3200 3201 3203 3204 3205 3207 3207 3208 3209 3208 3210 3211 3211 3211 3212 3212 3211 3210 3207
3126 3126 3131 3138 3139 3142 3145 3143 3141 3143 3146 3148 3151 3155 3158 3161 3163 3166 3168 3171 3173 3175 3179 3183 3186 3188 3190 3192 3194 3196 3197 3199 3201 3201 3203 3205 3206 3207 3208 3209 3210 3211 3212 3213 3213 3213 3212 3211 3209
3115 3128 3129 3130 3132 3133 3135 3142 3132 3137 3140 3143 3147 3151 3154 3156 3159 3161 3163 3165 3168 3171 3173 3177 3181 3183 3186 3188 3191 3192 3194 3196 3197 3198 3200 3203 3204 3206 3207 3209 3210 3210 3211 3212 3213 3213 3212 3211 3209
3119 3124 3124 3125 3126 3125 3124 3139 3133 3133 3134 3143 3144 3143 3145 3151 3154 3158 3161 3163 3164 3166 3168 3171 3174 3177 3181 3183 3186 3189 3191 3193 3195 3196 3199 3201 3203 3205 3207 3209 3209 3209 3211 3212 3212 3211 3209 3208 3207
3111 3116 3117 3119 3115 3113 3120 3124 3121 3124 3128 3130 3137 3142 3144 3146 3151 3154 3157 3159 3160 3162 3163 3166 3170 3173 3175 3178 3181 3185 3188 3190 3192 3195 3197 3199 3202 3203 3205 3207 3208 3208 3209 3210 3210 3208 3207 3205 3204
3101 3106 3106 3114 3110 3108 3111 3108 3108 3116 3120 3123 3127 3137 3143 3145 3145 3148 3152 3153 3156 3158 3160 3163 3166 3169 3171 3174 3177 3181 3184 3186 3189 3192 3195 3197 3200 3201 3202 3205 3206 3207 3208 3208 3208 3207 3205 3204 3201
3094 3090 3101 3104 3104 3101 3101 3104 3107 3109 3113 3117 3119 3127 3133 3136 3139 3144 3147 3149 3151 3154 3156 3158 3162 3165 3168 3170 3173 3176 3180 3183 3186 3189 3192 3194 3197 3199 3200 3202 3203 3204 3204 3204 3205 3203 3203 3202 3199
3083 3092 3096 3094 3098 3097 3094 3096 3096 3098 3103 3109 3116 3118 3122 3129 3134 3131 3140 3142 3145 3147 3151 3154 3157 3162 3165 3167 3169 3173 3176 3179 3183 3185 3188 3190 3193 3195 3198 3199 3200 3200 3200 3200 3200 3199 3199 3199 3197
3077 3078 3085 3089 3088 3090 3095 3086 3094 3098 3097 3099 3104 3107 3109 3118 3122 3124 3127 3134 3138 3142 3145 3148 3152 3156 3159 3162 3165 3169 3172 3175 3179 3181 3184 3186 3188 3191 3193 3194 3196 3196 3196 3196 3196 3195 3195 3194 3192
3066 3069 3076 3077 3082 3083 3087 3080 3089 3095 3094 3094 3095 3100 3106 3105 3107 3114 3125 3130 3131 3135 3139 3142 3147 3150 3154 3157 3160 3164 3168 3171 3174 3177 3180 3182 3185 3185 3187 3189 3191 3191 3191 3191 3191 3191 3190 3190 3189